Location: Praha
(50.0830°N, 14.4670°E)
Time: 15:15:14
(UTC+02:00)

ISS - Pass Details

Date: 05 October 2019
Orbit: 411 x 421 km, 51.6° (Epoch: 18 October)

Event Time Altitude Azimuth Distance (km) Brightness Sun altitude
Rises 20:32:11 0° 286° (WNW) 2,347 1.7 -19.8°
Reaches altitude 10° 20:34:30 10° 272° (W) 1,481 0.1 -20.2°
Maximum altitude 20:37:16 25° 216° (SW) 883 -2.0 -20.6°
Enters shadow 20:37:40 24° 203° (SSW) 898 -2.1 -20.7°
